SCP
0 0 0 0 0 0 0 0 0 0 0 0 0 0 0 0 0 0 0 0 0 0 0 0 0 0 0 0 0 0 0 0 0 0 0 0 0 0
0 0 0 0 0 0 0 0 0 0 0 0 0 0 0 0 0 0 0 0 0 0 0 0 0 0 0 0 0 0 0 0 0 0 0 0 0 0
0 0 0 0 0 0 0 0 0 0 0 0 0 0 0 0 0 0 0 0 0 0 0 0 0 0 0 0 0 0 0 0 0 0 0 0 0 0
0 0 0 0 0 0 0 0 0 0 0 0 0 0 0 0 0 0 0 0 0 0 0 0 0 0 0 0 0 0 0 0 0 0 0 0 0 0
0 0 0 0 0 0 0 0 0 0 0 0 0 0 0 0 0 0 0 0 0 0 0 0 0 0 0 0 0 0 0 0 0 0 0 0 0 0
0 0 0 0 0 0 0 0 0 0 0 0 0 0 0 0 0 0 0 0 0 0 0 0 0 0 0 0 0 0 0 0 0 0 0 0 0 0
0 0 0 0 0 0 0 0 0 0 0 0 0 0 0 0 0 0 0 0 0 0 0 0 0 0 0 0 0 0 0 0 0 0 0 0 0 0
0 0 0 0 0 0 0 0 0 0 0 0 0 0 0 0 0 0 0 0 0 0 0 0 0 0 0 0 0 0 0 0 0 0 0 0 0 0
0 0 0 0 0 0 0 0 0 0 0 0 0 0 0 0 0 0 0 0 0 0 0 0 0 0 0 0 0 0 0 0 0 0 0 0 0 0
0 0 0 0 0 0 0 0 0 0 0 0 0 0 0 0 0 0 0 0 0 0 0 0 0 0 0 0 0 0 0 0 0 0 0 0 0 0
0 0 0 0 0 0 0 0 0 0 0 0 0 0 0 0 0 0 0 0 0 0 0 0 0 0 0 0 0 0 0 0 0 0 0 0 0 0
0 0 0 0 0 0 0 0 0 0 0 0 0 0 0 0 0 0 0 0 0 0 0 0 0 0 0 0 0 0 0 0 0 0 0 0 0 0
0 0 0 0 0 0 0 0 0 0 0 0 0 0 0 0 0 0 0 0 0 0 0 0 0 0 0 0 0 0 0 0 0 0 0 0 0 0
0 0 0 0 0 0 0 0 0 0 0 0 0 0 0 0 0 0 0 0 0 0 0 0 0 0 0 0 0 0 0 0 0 0 0 0 0 0
0 0 0 0 0 0 0 0 0 0 0 0 0 0 0 0 0 0 0 0 0 0 0 0 0 0 0 0 0 0 0 0 0 0 0 0 0 0
0 0 0 0 0 0 0 0 0 0 0 0 0 0 0 0 0 0 0 0 0 0 0 0 0 0 0 0 0 0 0 0 0 0 0 0 0 0
0 0 0 0 0 0 0 0 0 0 0 0 0 0 0 0 0 0 0 0 0 0 0 0 0 0 0 0 0 0 0 0 0 0 0 0 0 0
0 0 0 0 0 0 0 0 0 0 0 0 0 0 0 0 0 0 0 0 0 0 0 0 0 0 0 0 0 0 0 0 0 0 0 0 0 -0
0 0 0 0 0 0 0 0 0 0 0 0 0 0 0 0 0 0 0 0 0 0 0 0 0 0 0 0 0 0 0 0 0 0 0 0 -0 -0
0 0 0 0 0 0 0 0 0 0 0 0 0 0 0 0 0 0 0 0 0 0 0 0 0 0 0 0 0 0 0 0 0 0 0 0 0 0
0 0 0 0 0 0 0 0 0 0 0 0 0 0 0 0 0 0 0 0 0 0 0 0 0 0 0 0 0 0 0 0 0 0 0 -0 -0 0
0 0 0 0 0 0 0 0 0 0 0 0 0 0 0 0 0 0 0 0 0 0 0 0 0 0 0 0 0 0 0 0 0 0 0 0 -0 -0
0 0 0 0 0 0 0 0 0 0 0 0 0 0 0 0 0 0 0 0 0 0 0 0 0 0 0 0 0 0 0 0 0 0 0 0 0 0
Wind_Speed_500mb
77 81 74 75 76 74 70 68 68 60 64 78 74 76 71 68 70 77 78 78 78 70 71 69 69 68 67 68 69 71 68 65 63 63 64 66 67 71
81 81 83 84 82 83 78 79 77 78 77 77 77 74 76 67 71 74 76 81 74 73 70 68 68 67 64 68 71 69 65 61 60 63 65 67 67 68
85 84 85 95 91 86 84 84 85 83 83 82 82 82 75 74 74 94 87 79 85 81 72 70 68 66 66 67 68 66 63 62 63 64 65 64 65 67
105 93 94 89 85 86 90 90 91 88 80 95 94 91 89 77 77 83 84 84 86 75 71 70 70 68 63 60 61 62 62 62 64 63 60 63 69 75
98 96 94 89 88 89 96 101 102 96 95 98 97 92 95 85 82 90 90 98 84 80 70 65 66 61 61 65 64 64 62 62 61 61 64 68 73 76
103 100 97 94 94 97 103 109 107 104 104 107 103 100 98 100 93 94 103 105 88 80 69 64 56 56 56 55 56 56 58 56 56 60 67 71 70 72
102 103 103 104 103 104 111 113 108 107 108 99 96 99 103 102 101 105 110 106 81 61 50 40 38 51 56 53 52 47 47 52 60 69 71 71 71 72
103 103 101 99 103 110 115 107 97 97 110 106 101 95 101 98 102 101 88 71 57 60 56 52 48 51 50 49 46 48 53 61 65 71 72 70 68 68
94 94 95 98 104 111 103 97 96 107 115 112 99 92 91 87 78 69 61 66 58 40 35 35 40 51 50 53 52 53 58 62 69 73 71 66 57 55
107 101 96 95 99 102 99 98 105 105 91 97 86 82 70 59 56 52 44 41 37 31 25 43 41 56 57 55 65 63 61 62 67 73 57 52 53 55
98 96 94 98 101 105 107 101 86 75 66 62 52 37 30 33 36 36 29 18 13 10 25 52 54 54 56 65 56 52 59 65 58 54 56 56 57 54
92 96 99 101 98 89 75 64 57 47 37 30 28 31 31 28 18 10 12 17 29 26 25 41 47 46 51 53 46 44 46 52 57 60 67 69 66 55
87 82 78 76 72 60 42 36 39 40 33 27 20 14 4 4 5 9 16 21 24 37 35 40 56 59 57 69 71 76 68 66 61 55 50 48 43 49
71 57 45 35 23 20 28 32 32 30 23 11 9 2 2 5 8 13 21 28 33 42 48 48 51 54 61 73 79 72 60 54 46 56 61 52 47 47
36 28 24 22 29 33 33 30 22 16 11 8 7 4 2 11 19 23 27 32 36 39 41 41 44 49 48 54 63 63 65 63 55 39 36 46 45 46
37 40 41 45 37 29 21 18 17 12 9 5 2 5 11 16 20 23 26 29 35 39 36 33 37 39 44 49 52 60 60 60 66 59 47 46 43 49
43 41 34 29 34 25 17 13 11 9 6 6 7 10 13 17 19 22 25 29 34 40 36 29 32 38 43 49 54 57 62 58 53 54 51 58 58 47
33 33 30 26 22 20 16 10 9 10 11 12 11 12 15 19 23 26 27 28 31 35 36 34 35 40 45 48 43 50 53 52 39 42 54 62 67 55
29 29 25 22 16 13 8 6 10 10 8 10 15 18 22 25 25 25 25 26 31 33 36 37 37 39 50 58 50 37 49 58 67 70 67 53 50 64
24 25 20 15 13 8 4 3 6 13 17 20 19 18 18 19 21 23 26 29 36 42 45 41 34 34 38 53 61 63 52 62 54 53 53 52 49 43
19 17 13 10 7 4 5 7 10 13 12 10 15 18 23 25 20 23 27 28 30 32 37 41 42 48 53 56 61 62 57 47 48 51 51 58 58 52
15 11 7 5 3 1 5 8 9 11 14 17 17 17 19 18 18 22 22 26 28 31 38 42 41 41 43 46 53 60 63 59 48 43 43 44 48 55
9 5 2 5 5 6 6 7 9 9 11 12 13 16 20 17 15 17 21 25 28 32 35 39 41 42 45 48 52 58 59 56 52 50 46 34 29 32
Wind_Direction_500mb
243 249 248 259 262 259 261 257 259 258 262 273 274 285 281 270 265 269 256 257 257 251 250 250 254 258 263 266 267 272 272 272 272 273 273 275 278 280
247 252 256 259 266 262 265 262 261 265 264 278 278 276 272 271 272 268 260 258 253 250 251 250 252 257 264 268 270 271 272 271 271 272 274 277 279 281
245 252 256 265 266 267 264 263 261 270 268 273 280 281 264 267 255 265 255 252 254 250 251 248 250 256 265 268 267 268 267 268 269 272 275 278 281 283
250 250 253 261 262 261 264 261 263 268 271 270 280 276 259 260 256 244 244 248 252 247 245 245 248 254 265 267 265 264 265 268 271 273 275 277 279 282
247 247 250 253 255 255 258 263 271 271 267 270 276 269 262 264 260 252 243 248 246 244 244 240 248 261 266 266 266 266 267 268 271 273 277 281 284 281
248 247 250 251 251 254 260 265 270 273 271 270 272 262 262 258 259 253 244 240 236 234 234 240 251 256 261 264 265 264 264 268 271 277 284 284 282 282
247 249 250 252 253 253 259 265 271 275 273 263 263 260 254 255 253 246 236 236 231 228 239 231 241 256 264 269 267 264 270 276 281 286 290 292 291 291
246 248 251 253 253 255 261 269 268 271 267 266 268 258 255 248 248 236 232 222 214 217 216 229 244 257 264 270 271 281 284 286 284 289 290 290 289 291
246 251 255 254 255 259 263 264 271 272 259 260 258 253 249 247 240 225 222 222 219 228 235 239 245 256 269 274 279 285 282 279 282 286 287 288 287 292
253 254 256 257 259 261 262 262 269 268 261 252 251 250 250 249 241 231 223 227 232 234 252 267 265 273 273 274 284 285 273 273 277 280 280 284 288 293
251 253 254 257 258 261 263 267 261 260 254 246 240 240 236 215 210 206 205 244 275 263 247 268 276 273 276 280 279 275 275 272 270 272 276 276 284 288
250 250 253 254 255 257 257 258 256 237 227 217 196 192 184 187 191 218 245 226 267 284 276 258 265 272 286 286 276 267 266 261 262 267 279 279 276 281
249 249 251 256 259 259 252 242 228 202 181 182 179 181 176 272 232 247 260 263 259 253 239 256 268 276 273 277 278 283 285 284 284 285 286 280 271 278
240 239 241 247 239 204 185 180 181 171 166 169 157 213 324 317 293 271 259 258 255 259 266 270 273 277 279 283 286 292 292 293 289 281 290 291 267 279
217 205 198 174 161 154 155 150 147 149 137 124 77 54 315 258 259 266 271 274 276 278 281 281 281 285 287 289 292 295 296 295 297 301 289 283 278 276
161 144 145 144 143 141 128 114 108 96 87 79 154 237 261 275 290 294 292 290 291 293 291 283 282 284 283 282 288 292 293 289 293 296 299 294 293 281
122 120 117 109 113 105 90 79 70 62 23 349 314 305 300 300 303 296 296 296 298 304 305 295 284 279 277 282 286 287 294 299 302 304 288 282 284 286
111 107 102 92 84 84 73 56 32 17 357 335 323 320 317 313 305 302 304 305 302 300 301 298 297 297 289 282 278 288 291 287 282 281 282 291 290 283
108 107 104 102 98 86 77 23 353 346 333 320 325 324 317 315 320 322 319 309 301 298 296 294 295 304 303 297 299 273 287 286 293 297 298 298 297 295
98 98 99 98 89 74 47 345 322 312 323 328 334 335 325 314 309 307 303 300 302 299 295 300 302 305 311 313 309 304 305 298 300 301 303 301 300 295
90 96 104 106 100 68 3 339 339 335 341 327 306 300 303 308 310 306 304 303 304 307 305 303 302 298 299 302 302 301 305 300 295 295 293 291 291 292
86 73 68 78 84 4 299 307 294 291 294 294 300 310 310 307 309 312 318 318 316 312 306 306 310 313 311 310 308 307 308 308 302 294 294 286 282 277
109 102 10 339 315 315 305 304 302 306 309 308 304 296 297 315 317 320 319 316 312 311 315 318 317 315 314 313 314 314 313 312 314 314 312 307 269 248
Wind_Speed_850mb
77 81 74 75 76 74 70 68 68 60 64 78 74 76 71 68 70 77 78 78 78 70 71 69 69 68 67 68 69 71 68 65 63 63 64 66 67 71
81 81 83 84 82 83 78 79 77 78 77 77 77 74 76 67 71 74 76 81 74 73 70 68 68 67 64 68 71 69 65 61 60 63 65 67 67 68
85 84 85 95 91 86 84 84 85 83 83 82 82 82 75 74 74 94 87 79 85 81 72 70 68 66 66 67 68 66 63 62 63 64 65 64 65 67
105 93 94 89 85 86 90 90 91 88 80 95 94 91 89 77 77 83 84 84 86 75 71 70 70 68 63 60 61 62 62 62 64 63 60 63 69 75
98 96 94 89 88 89 96 101 102 96 95 98 97 92 95 85 82 90 90 98 84 80 70 65 66 61 61 65 64 64 62 62 61 61 64 68 73 76
103 100 97 94 94 97 103 109 107 104 104 107 103 100 98 100 93 94 103 105 88 80 69 64 56 56 56 55 56 56 58 56 56 60 67 71 70 72
102 103 103 104 103 104 111 113 108 107 108 99 96 99 103 102 101 105 110 106 81 61 50 40 38 51 56 53 52 47 47 52 60 69 71 71 71 72
103 103 101 99 103 110 115 107 97 97 110 106 101 95 101 98 102 101 88 71 57 60 56 52 48 51 50 49 46 48 53 61 65 71 72 70 68 68
94 94 95 98 104 111 103 97 96 107 115 112 99 92 91 87 78 69 61 66 58 40 35 35 40 51 50 53 52 53 58 62 69 73 71 66 57 55
107 101 96 95 99 102 99 98 105 105 91 97 86 82 70 59 56 52 44 41 37 31 25 43 41 56 57 55 65 63 61 62 67 73 57 52 53 55
98 96 94 98 101 105 107 101 86 75 66 62 52 37 30 33 36 36 29 18 13 10 25 52 54 54 56 65 56 52 59 65 58 54 56 56 57 54
92 96 99 101 98 89 75 64 57 47 37 30 28 31 31 28 18 10 12 17 29 26 25 41 47 46 51 53 46 44 46 52 57 60 67 69 66 55
87 82 78 76 72 60 42 36 39 40 33 27 20 14 4 4 5 9 16 21 24 37 35 40 56 59 57 69 71 76 68 66 61 55 50 48 43 49
71 57 45 35 23 20 28 32 32 30 23 11 9 2 2 5 8 13 21 28 33 42 48 48 51 54 61 73 79 72 60 54 46 56 61 52 47 47
36 28 24 22 29 33 33 30 22 16 11 8 7 4 2 11 19 23 27 32 36 39 41 41 44 49 48 54 63 63 65 63 55 39 36 46 45 46
37 40 41 45 37 29 21 18 17 12 9 5 2 5 11 16 20 23 26 29 35 39 36 33 37 39 44 49 52 60 60 60 66 59 47 46 43 49
43 41 34 29 34 25 17 13 11 9 6 6 7 10 13 17 19 22 25 29 34 40 36 29 32 38 43 49 54 57 62 58 53 54 51 58 58 47
33 33 30 26 22 20 16 10 9 10 11 12 11 12 15 19 23 26 27 28 31 35 36 34 35 40 45 48 43 50 53 52 39 42 54 62 67 55
29 29 25 22 16 13 8 6 10 10 8 10 15 18 22 25 25 25 25 26 31 33 36 37 37 39 50 58 50 37 49 58 67 70 67 53 50 64
24 25 20 15 13 8 4 3 6 13 17 20 19 18 18 19 21 23 26 29 36 42 45 41 34 34 38 53 61 63 52 62 54 53 53 52 49 43
19 17 13 10 7 4 5 7 10 13 12 10 15 18 23 25 20 23 27 28 30 32 37 41 42 48 53 56 61 62 57 47 48 51 51 58 58 52
15 11 7 5 3 1 5 8 9 11 14 17 17 17 19 18 18 22 22 26 28 31 38 42 41 41 43 46 53 60 63 59 48 43 43 44 48 55
9 5 2 5 5 6 6 7 9 9 11 12 13 16 20 17 15 17 21 25 28 32 35 39 41 42 45 48 52 58 59 56 52 50 46 34 29 32
Wind_Direction_850mb
243 249 248 259 262 259 261 257 259 258 262 273 274 285 281 270 265 269 256 257 257 251 250 250 254 258 263 266 267 272 272 272 272 273 273 275 278 280
247 252 256 259 266 262 265 262 261 265 264 278 278 276 272 271 272 268 260 258 253 250 251 250 252 257 264 268 270 271 272 271 271 272 274 277 279 281
245 252 256 265 266 267 264 263 261 270 268 273 280 281 264 267 255 265 255 252 254 250 251 248 250 256 265 268 267 268 267 268 269 272 275 278 281 283
250 250 253 261 262 261 264 261 263 268 271 270 280 276 259 260 256 244 244 248 252 247 245 245 248 254 265 267 265 264 265 268 271 273 275 277 279 282
247 247 250 253 255 255 258 263 271 271 267 270 276 269 262 264 260 252 243 248 246 244 244 240 248 261 266 266 266 266 267 268 271 273 277 281 284 281
248 247 250 251 251 254 260 265 270 273 271 270 272 262 262 258 259 253 244 240 236 234 234 240 251 256 261 264 265 264 264 268 271 277 284 284 282 282
247 249 250 252 253 253 259 265 271 275 273 263 263 260 254 255 253 246 236 236 231 228 239 231 241 256 264 269 267 264 270 276 281 286 290 292 291 291
246 248 251 253 253 255 261 269 268 271 267 266 268 258 255 248 248 236 232 222 214 217 216 229 244 257 264 270 271 281 284 286 284 289 290 290 289 291
246 251 255 254 255 259 263 264 271 272 259 260 258 253 249 247 240 225 222 222 219 228 235 239 245 256 269 274 279 285 282 279 282 286 287 288 287 292
253 254 256 257 259 261 262 262 269 268 261 252 251 250 250 249 241 231 223 227 232 234 252 267 265 273 273 274 284 285 273 273 277 280 280 284 288 293
251 253 254 257 258 261 263 267 261 260 254 246 240 240 236 215 210 206 205 244 275 263 247 268 276 273 276 280 279 275 275 272 270 272 276 276 284 288
250 250 253 254 255 257 257 258 256 237 227 217 196 192 184 187 191 218 245 226 267 284 276 258 265 272 286 286 276 267 266 261 262 267 279 279 276 281
249 249 251 256 259 259 252 242 228 202 181 182 179 181 176 272 232 247 260 263 259 253 239 256 268 276 273 277 278 283 285 284 284 285 286 280 271 278
240 239 241 247 239 204 185 180 181 171 166 169 157 213 324 317 293 271 259 258 255 259 266 270 273 277 279 283 286 292 292 293 289 281 290 291 267 279
217 205 198 174 161 154 155 150 147 149 137 124 77 54 315 258 259 266 271 274 276 278 281 281 281 285 287 289 292 295 296 295 297 301 289 283 278 276
161 144 145 144 143 141 128 114 108 96 87 79 154 237 261 275 290 294 292 290 291 293 291 283 282 284 283 282 288 292 293 289 293 296 299 294 293 281
122 120 117 109 113 105 90 79 70 62 23 349 314 305 300 300 303 296 296 296 298 304 305 295 284 279 277 282 286 287 294 299 302 304 288 282 284 286
111 107 102 92 84 84 73 56 32 17 357 335 323 320 317 313 305 302 304 305 302 300 301 298 297 297 289 282 278 288 291 287 282 281 282 291 290 283
108 107 104 102 98 86 77 23 353 346 333 320 325 324 317 315 320 322 319 309 301 298 296 294 295 304 303 297 299 273 287 286 293 297 298 298 297 295
98 98 99 98 89 74 47 345 322 312 323 328 334 335 325 314 309 307 303 300 302 299 295 300 302 305 311 313 309 304 305 298 300 301 303 301 300 295
90 96 104 106 100 68 3 339 339 335 341 327 306 300 303 308 310 306 304 303 304 307 305 303 302 298 299 302 302 301 305 300 295 295 293 291 291 292
86 73 68 78 84 4 299 307 294 291 294 294 300 310 310 307 309 312 318 318 316 312 306 306 310 313 311 310 308 307 308 308 302 294 294 286 282 277
109 102 10 339 315 315 305 304 302 306 309 308 304 296 297 315 317 320 319 316 312 311 315 318 317 315 314 313 314 314 313 312 314 314 312 307 269 248